Track DRAGON ENDURANCE 4 now! 10-day predictions DRAGON ENDURANCE 4 is classified as:
1 63204U 25049A 25182.60262425 .00005250 00000-0 98795-4 0 9994 2 63204 51.6362 235.6237 0002078 320.5297 198.2707 15.50319249 16531